Location: Unspecified
(38.9356°N, 0.0000°E)
Time: 03:57:40
(UTC+00:00)

Feng Yun 1-A - Visible Passes

Search period start: 05 April 2026 00:00
Search period end: 15 April 2026 00:00
Orbit: 872 x 892 km, 99.0° (Epoch: 29 March)

Date Brightness Start Highest point End Pass type
(mag) Time Alt. Az. Time Alt. Az. Time Alt. Az.
5 Apr 6.3 19:04:50 10° ESE 19:08:31 18° ENE 19:12:11 10° NNE visible
5 Apr 5.0 20:47:19 42° SSW 20:49:14 66° WSW 20:54:54 10° NNW visible
6 Apr 6.4 19:02:16 10° E 19:05:46 17° ENE 19:09:16 10° NNE visible
6 Apr 5.0 20:44:25 41° S 20:46:26 70° WSW 20:52:08 10° NNW visible
7 Apr 6.4 18:59:42 10° E 19:03:01 16° ENE 19:06:20 10° NNE visible
7 Apr 4.9 20:41:31 40° S 20:43:39 74° WSW 20:49:21 10° NNW visible
8 Apr 6.5 18:57:09 10° E 19:00:16 15° ENE 19:03:22 10° NNE visible
8 Apr 4.8 20:38:36 39° S 20:40:51 78° WSW 20:46:34 10° NNW visible
9 Apr 6.5 18:54:38 10° E 18:57:31 14° ENE 19:00:25 10° NNE visible
9 Apr 4.8 20:35:41 37° S 20:38:04 82° WSW 20:43:47 10° NNW visible
10 Apr 6.6 18:52:07 10° E 18:54:47 14° ENE 18:57:25 10° NNE visible
10 Apr 4.7 20:32:47 36° SSE 20:35:16 86° WSW 20:41:00 10° NNW visible
10 Apr 7.4 22:17:02 10° W 22:17:17 10° W 22:17:31 10° W visible
11 Apr 4.7 20:29:52 34° SSE 20:32:29 89° ENE 20:38:12 10° NNW visible
11 Apr 7.4 22:13:04 10° WSW 22:14:27 11° W 22:15:50 10° WNW visible
12 Apr 4.7 20:26:58 33° SSE 20:29:42 85° ENE 20:35:24 10° NNW visible
12 Apr 7.3 22:09:41 10° WSW 22:11:37 12° W 22:13:33 10° WNW visible
13 Apr 4.7 20:24:04 31° SSE 20:26:55 81° ENE 20:32:37 10° NNW visible
13 Apr 7.3 22:06:43 10° WSW 22:08:47 13° W 22:11:08 10° WNW visible
14 Apr 4.7 20:21:09 30° SSE 20:24:08 76° ENE 20:29:49 10° N visible
14 Apr 7.2 22:03:48 11° WSW 22:05:58 13° W 22:08:38 10° WNW visible
